Regional Weather Roundup
Issued by NWS Newport/Morehead, NC

Current Version | Previous Version | Graphics & Text | Print | Product List | Glossary Off
Versions: 1 2 3 4 5 6 7 8 9 10 11 12 13 14 15 16 17 18 19 20 21 22 23 24 25 26 27 28 29 30 31 32 33 34 35 36 37 38 39 40 41 42 43 44 45 46 47 48 49 50

000
ASUS42 KMHX 270313
RWRMHX
WEATHER ROUNDUP FOR EASTERN NORTH CAROLINA
NATIONAL WEATHER SERVICE NEWPORT/MOREHEAD CITY NC
1000 PM EST SUN FEB 26 2017

NOTE: "FAIR" INDICATES FEW OR NO CLOUDS BELOW 12,000 FEET
WITH NO SIGNIFICANT WEATHER AND/OR OBSTRUCTIONS TO VISIBILITY

NCZ015>017-031-032-045>047-102-103-270400-
NORTH COAST

CITY           SKY/WX    TMP DP  RH WIND       PRES   REMARKS
EDENTON        FAIR      40  31  71 CALM      30.32S
ELIZABETH CITY FAIR      44  38  79 CALM      30.33R
KITTY HAWK     NOT AVBL
MANTEO         FAIR      42  37  81 E3        30.33S

$$

NCZ045>047-081-094-103-104-270400-
CENTRAL COAST

CITY           SKY/WX    TMP DP  RH WIND       PRES   REMARKS
FRISCO         FAIR      50  35  56 NE3       30.32R

$$

NCZ095-097-098-100-101-270400-
SOUTHERN COAST

CITY           SKY/WX    TMP DP  RH WIND       PRES   REMARKS
BEAUFORT       FAIR      48  36  63 NW5       30.31R
CEDAR ISLAND   NOT AVBL
JACKSONVILLE   FAIR      40  35  83 CALM      30.31R
PINEY ISLAND   FAIR     N/A N/A N/A SW3       30.31R
WILMINGTON     FAIR      40  35  83 CALM      30.31R


$$

NCZ011>013-027>030-043-044-078>080-089-090>093-098-270400-
COASTAL PLAIN

CITY           SKY/WX    TMP DP  RH WIND       PRES   REMARKS
AHOSKIE          N/A     34  28  78 CALM      30.32S
CLINTON        FAIR      40  32  74 CALM      30.31S
ELIZABETHTOWN  FAIR      41  31  68 CALM      30.31R
GOLDSBORO      FAIR      39  25  57 CALM      30.29R
GREENVILLE     FAIR      39  30  70 CALM      30.32R
HAVELOCK       CLEAR     41  32  70 CALM      30.32R
KENANSVILLE    FAIR      34  28  80 NE3       30.32R
KINSTON        FAIR      36  30  80 CALM      30.32R
NEW BERN       FAIR      38  31  76 CALM      30.33R
RICHLANDS      FAIR      36  31  82 CALM      30.32R
ROCKY MOUNT    FAIR      35  30  82 CALM      30.30S
WASHINGTON     FAIR      40  30  67 CALM      30.32R
WHITEVILLE     FAIR      41  32  69 CALM      30.31R

$$

AMZ130-135-150-152-154-156-158-170-250-252-270-ANZ085-086-088-633-658-670-270400-
MARINE OBSERVATIONS

STATION/POSITION TIME  TEMP    WIND        PRES    WAVE   SWELL
                       AIR SEA DIR/SP/G            HT/PER HT/PER
                 (UTC) (F)     (DEG/KT/KT) (MB)    (FT/S) (FT/S)
CHESAPEAKE LIGHT NOT AVBL
64 E VA BEACH    0250   44 51   60/  4/  6 1027.4    4/ 9   3/ 9
DUCK             0236   46 49  110/  7/  9 1026.5
2 E DUCK         0300      49                N/A     3/10   2/11
OREGON INLET     0236   46 57   50/  5/  6 1026.7
13E OREGON INLT  NOT AVBL
HATTERAS CG      0236   54 62  320/  8/ 10 1026.2
DIAMOND BUOY     0250   56 72  310/ 10/ 14 1026.6    4/ 9   3/ 9
CAPE LOOKOUT     0300   56     320/  7/  9 1026.2
BEAUFORT LAB     0236   53 62  310/  3/  6 1025.5
30 SE NEW RVR IN 0208   56     300/  6/ 10 1026.2
30 SE NEW RVR IN 0243      65                N/A     3/ 9   2/11
27 SE WRIGHTSVLE 0208   57 63  250/  6/ 10 1025.1
5 SE WRIGHTSVLE  0208   56 58  340/  8/ 10 1025.8
225 S CAPE HAT   0250   64 71  360/ 10/ 14 1025.2    6/ 8   5/ 8
41 SE CHARLESTON 0250   60 69   80/  4/  8 1025.8    3/ 9   3/ 9

$$




USA.gov is the U.S. government's official web portal to all federal, state and local government web resources and services.